Address 0xf042546c9a5bb1cb23d5bc9bcd78bb6a552284af 1

 
 
Txn Hash Method
Block
From
To
Value [Txn Fee]
0x9b3396162b07dad490fe765d10ab866c1659a13a055c229c1fc274113836a7ec0x0001145196246952021-07-31 7:32:4549 days 23 hrs ago0xf042546c9a5bb1cb23d5bc9bcd78bb6a552284afOUT 0x3a2d96158e19810fd8bb199a614fd3572a63b1f60 BNB0.001088114238
0x1cab6029ac1ea8534db7e097d25b92695f7a1078db4bd4f51a027d46ebeee3260x000019c196246522021-07-31 7:30:3649 days 23 hrs ago0xf042546c9a5bb1cb23d5bc9bcd78bb6a552284afOUT 0x3a2d96158e19810fd8bb199a614fd3572a63b1f60 BNB0.001332470372
0x8a7a1622c8d4c82826bbc06b597c9e0a80b860f1bcee2d82310c9cf5067d6b6d0x00011e3496245482021-07-31 7:25:2449 days 23 hrs ago0xf042546c9a5bb1cb23d5bc9bcd78bb6a552284afOUT 0x3a2d96158e19810fd8bb199a614fd3572a63b1f60 BNB0.005083850835
0x76f30578524086fc45e3fea44f2dbc36dca7e37a299f0922bd00aefedf9c1e3b0x00010aac96245132021-07-31 7:23:3949 days 23 hrs ago0xf042546c9a5bb1cb23d5bc9bcd78bb6a552284afOUT 0x3a2d96158e19810fd8bb199a614fd3572a63b1f60 BNB0.003406349927
0x775824ed6afb5397f5b71bd7db49be6ce0f56ba4e06624e556c9eeab5dce7f960x0000198596244572021-07-31 7:20:5049 days 23 hrs ago0xf042546c9a5bb1cb23d5bc9bcd78bb6a552284afOUT 0x3a2d96158e19810fd8bb199a614fd3572a63b1f60 BNB0.000422198021
0x59d74894f0e93c78a3bba8d27ba354ae6138d028966db771363dc5e8c834ba740x00010aac96244332021-07-31 7:19:3849 days 23 hrs ago0xf042546c9a5bb1cb23d5bc9bcd78bb6a552284afOUT 0x3a2d96158e19810fd8bb199a614fd3572a63b1f60 BNB0.000380534856
0xe3403ff6e7f54076b77ce729b2d6b2fdd306d0ca300e0acf7acb931e72981c260x0001197296240922021-07-31 7:02:1350 days 13 mins ago0xf042546c9a5bb1cb23d5bc9bcd78bb6a552284afOUT 0x3a2d96158e19810fd8bb199a614fd3572a63b1f60 BNB0.000619443506
0xfd0ac629be6cf84ff113c981c360b944f15ccd7265711615a9347f24f7bc33180x0000192796219762021-07-31 5:16:0550 days 1 hr ago0xf042546c9a5bb1cb23d5bc9bcd78bb6a552284afOUT 0x3a2d96158e19810fd8bb199a614fd3572a63b1f60 BNB0.534327022763
0x6e1b2691faa08fcf6a6e0bb29cf1fd38f87f2bce03d448d5646acd9c2794bed40x0000192796219722021-07-31 5:15:5350 days 2 hrs ago0xf042546c9a5bb1cb23d5bc9bcd78bb6a552284afOUT 0x3a2d96158e19810fd8bb199a614fd3572a63b1f60 BNB0.533976332173
0xd54a934c6a220346c8364a3c0d61e111f21b5c4d877e8523483f7eb062ca05330x0000192796219682021-07-31 5:15:4150 days 2 hrs ago0xf042546c9a5bb1cb23d5bc9bcd78bb6a552284afOUT 0x3a2d96158e19810fd8bb199a614fd3572a63b1f60 BNB0.497702386175
0xb008f3615a536465b6b5d2fd4ab068ccf51df7b5a684be66f3db3e20b5df9b1e0x000019c196218732021-07-31 5:10:5650 days 2 hrs ago0xf042546c9a5bb1cb23d5bc9bcd78bb6a552284afOUT 0x3a2d96158e19810fd8bb199a614fd3572a63b1f60 BNB0.000817645462
0x5f78a0e7c595debf2f40aae1546c5678a7a6d1146a0734da008552145cb668c60x00001e0f96202942021-07-31 3:49:2150 days 3 hrs ago0xf042546c9a5bb1cb23d5bc9bcd78bb6a552284afOUT 0x3a2d96158e19810fd8bb199a614fd3572a63b1f60 BNB0.002059346897
0x8ff5217a28f7e88ae53b013527531eaac99b3289c3a65e45324d0003da5646e30x0000140f96192082021-07-31 2:54:4250 days 4 hrs ago0xf042546c9a5bb1cb23d5bc9bcd78bb6a552284afOUT 0x3a2d96158e19810fd8bb199a614fd3572a63b1f60 BNB0.000464580226
0x02649f82889c57a560a2b83f3a4a83672d46ad94f6c5a3ea995d56fa6afa7a580x000017a996186432021-07-31 2:26:2450 days 4 hrs ago0xf042546c9a5bb1cb23d5bc9bcd78bb6a552284afOUT 0x3a2d96158e19810fd8bb199a614fd3572a63b1f60 BNB0.000805925
0x4ed5775f13716d4f731bf3d31b106c6dd48b0be9b444b13b2e85463f58d878a40x0000192796185132021-07-31 2:19:5450 days 4 hrs ago0xf042546c9a5bb1cb23d5bc9bcd78bb6a552284afOUT 0x3a2d96158e19810fd8bb199a614fd3572a63b1f60 BNB0.000194555
0xa0bfa6587342608f20e172bd96077afd9e8bd68ed25087ec2e6c29023afbb8dc0x0000199f96180422021-07-31 1:56:2150 days 5 hrs ago0xf042546c9a5bb1cb23d5bc9bcd78bb6a552284afOUT 0x3a2d96158e19810fd8bb199a614fd3572a63b1f60 BNB0.000203355
0xa4075b1487bd3b584e1d7b716678ffad05989c885aa99cba258d336a44b0058c0x00010aac96179682021-07-31 1:52:3950 days 5 hrs ago0xf042546c9a5bb1cb23d5bc9bcd78bb6a552284afOUT 0x3a2d96158e19810fd8bb199a614fd3572a63b1f60 BNB0.001333085
0xe28d321a7ea933a33ef726a9e14e0bc0d3f7cc0a642b45fbb291e361c957f70a0x0000140d95920552021-07-30 3:56:5851 days 3 hrs ago0xf042546c9a5bb1cb23d5bc9bcd78bb6a552284afOUT 0x3a2d96158e19810fd8bb199a614fd3572a63b1f60 BNB0.009819761781
0xcd0318c4ac5bbf307fbb6fb969269acb4b831ee7dab95f5a522a548662e512ca0x4b21df0373769882021-05-13 14:39:22128 days 16 hrs ago0xf042546c9a5bb1cb23d5bc9bcd78bb6a552284afOUT 0xcb5cf764065ab75db146e1513e7a6af32edc03780 BNB0.004179614613
0xaced35c8a1d50aa332c5877c0fd46b02a3945b4f61e64cfcc4aea6cd59d254570x4b21df0373769822021-05-13 14:39:04128 days 16 hrs ago0xf042546c9a5bb1cb23d5bc9bcd78bb6a552284afOUT 0xcb5cf764065ab75db146e1513e7a6af32edc03780 BNB0.003729953151
0xb9a4765bc79f5b075f3a04fe2426801b55b11c9c81eda20321410616793825490x4b21df0373769462021-05-13 14:37:16128 days 16 hrs ago0xf042546c9a5bb1cb23d5bc9bcd78bb6a552284afOUT 0xcb5cf764065ab75db146e1513e7a6af32edc03780 BNB0.003481974863
0x0ded34df4d88ba4d25428a46c875cb4daaa0f4f80481a887575e28a59689f3150x4b21df0373769132021-05-13 14:35:37128 days 16 hrs ago0xf042546c9a5bb1cb23d5bc9bcd78bb6a552284afOUT 0xcb5cf764065ab75db146e1513e7a6af32edc03780 BNB0.002330522903
0x27ab5216941a52f0043c1437f2af2113c44429cbb33fbd976b194cae678825a70x4b21df0373768892021-05-13 14:34:25128 days 16 hrs ago0xf042546c9a5bb1cb23d5bc9bcd78bb6a552284afOUT 0xcb5cf764065ab75db146e1513e7a6af32edc03780 BNB0.002288792983
0x789654ddcc9243be98acb700f87fec0e0d77bbb627b433edb634de9bb03ba1270x4b21df0373768242021-05-13 14:31:06128 days 16 hrs ago0xf042546c9a5bb1cb23d5bc9bcd78bb6a552284afOUT 0xcb5cf764065ab75db146e1513e7a6af32edc03780 BNB0.00209033614
0x9c648c5f56701b8daa6965480f4bfd2185f4e5a7348cf3844f0b44e0dbda44f20x4b21df0373767542021-05-13 14:27:13128 days 16 hrs ago0xf042546c9a5bb1cb23d5bc9bcd78bb6a552284afOUT 0xcb5cf764065ab75db146e1513e7a6af32edc03780 BNB0.00576885842
[ Download CSV Export 
Latest 1 internal transaction
Parent Txn Hash Block From To Value
0x56c07952755256a0e7d069487ce3d0d2345e8041a59acc025218d3bc8470c3fe72752162021-05-09 17:31:50132 days 13 hrs ago Binance: WBNB Token0xf042546c9a5bb1cb23d5bc9bcd78bb6a552284af10 BNB
[ Download CSV Export 
Loading

Contract Name:
0 BNB

Compiler Version
0

Optimization Enabled:
0 BNB

Other Settings:
-NA-
Block Transaction Gas Used Reward
Age Block Fee Address BC Fee Address Voting Power Jailed Incoming
Block Uncle Number Difficulty Gas Used Reward
Loading
Loading
Make sure to use the "Vote Down" button for any spammy posts, and the "Vote Up" for interesting conversations.